Russell, KS

3:26 PM CDT on September 25, 2016 (GMT -0500)
Russell Municipal

Weather History for KRSL - March, 2014

Change the Weather History Date:

Thursday, March 6, 2014

  Actual Average Record
Temperature  
Mean Temperature 36 °F -  
Max Temperature 52 °F 53 °F 87 °F (1972)
Min Temperature 19 °F 27 °F 1 °F (1989)
Degree Days  
Heating Degree Days 30    
Moisture  
Dew Point 29 °F    
Average Humidity 87    
Maximum Humidity 100    
Minimum Humidity 59    
Precipitation  
Precipitation 0.00 in - - ()
Sea Level Pressure  
Sea Level Pressure 30.06 in    
Wind  
Wind Speed 13 mph (South)    
Max Wind Speed 25 mph    
Max Gust Speed 32 mph    
Visibility 6 miles    
Events Fog    
Averages and records for this station are not official NWS values.
T = Trace of Precipitation, MM = Missing Value Source: NWS Daily Summary

Daily Weather History Graph

Daily Weather History Graph

Search for Another Location

Airport or City:

Trip Planner

Search our weather history database for the weather conditions in past years. The results will help you decide how hot, cold, wet, or windy it might be!

Date:

Astronomy

Mar. 06, 2014 Rise Set
Actual Time 7:00 AM CST 6:33 PM CST
Civil Twilight 6:33 AM CST 6:59 PM CST
Nautical Twilight 6:02 AM CST 7:30 PM CST
Astronomical Twilight 5:31 AM CST 8:01 PM CST
Moon 10:12 AM CST (3/6) No Moon Set
Length of Visible Light 12h 26m
Length of Day
11h 33m
Waxing Crescent, 32% of the Moon is Illuminated
Mar 6
Waxing Crescent
Mar 8
First Quarter
Mar 16
Full
Mar 23
Last Quarter
Mar 30
New

Hourly Weather History & Observations

Time (CST) Temp. Windchill Dew Point Humidity Pressure Visibility Wind Dir Wind Speed Gust Speed Precip Events Conditions
12:53 AM 19.9 °F 9.3 °F 18.0 °F 92% 30.29 in 4.0 mi South 9.2 mph - N/A   Clear
1:53 AM 19.9 °F 10.1 °F 17.1 °F 89% 30.28 in 4.0 mi SSW 8.1 mph - N/A   Clear
2:53 AM 19.9 °F 9.3 °F 18.0 °F 92% 30.25 in 3.0 mi SSW 9.2 mph - N/A   Clear
3:53 AM 19.0 °F 10.0 °F 17.1 °F 92% 30.24 in 3.0 mi SSW 6.9 mph - N/A   Clear
4:53 AM 19.9 °F 10.1 °F 18.0 °F 92% 30.22 in 3.0 mi South 8.1 mph - N/A   Clear
5:53 AM 19.9 °F 8.6 °F 18.0 °F 92% 30.20 in 3.0 mi South 10.4 mph - N/A   Clear
6:23 AM 21.0 °F 9.9 °F 19.0 °F 92% 30.14 in 3.0 mi South 10.4 mph - N/A   Scattered Clouds
6:32 AM 21.0 °F 10.6 °F 19.9 °F 96% 30.13 in 3.0 mi South 9.2 mph - N/A   Mostly Cloudy
6:45 AM 21.9 °F 11.0 °F 21.0 °F 96% 30.13 in 2.5 mi South 10.4 mph - N/A   Overcast
6:53 AM 21.9 °F 10.4 °F 21.0 °F 96% 30.20 in 1.2 mi South 11.5 mph - N/A   Overcast
7:02 AM 23.0 °F 10.6 °F 21.9 °F 96% 30.12 in 0.5 mi South 13.8 mph - N/A Fog Light Freezing Fog
7:53 AM 25.0 °F 13.1 °F 24.1 °F 96% 30.17 in 0.2 mi South 13.8 mph - N/A Fog Light Freezing Fog
8:53 AM 27.0 °F 15.6 °F 27.0 °F 100% 30.17 in 0.2 mi South 13.8 mph - N/A Fog Light Freezing Fog
9:53 AM 28.9 °F 16.9 °F 28.9 °F 100% 30.14 in 0.2 mi South 17.3 mph - N/A Fog Light Freezing Fog
10:53 AM 30.9 °F 19.4 °F 30.9 °F 100% 30.12 in 1.0 mi South 17.3 mph - N/A   Overcast
11:26 AM 33.1 °F 23.0 °F 32.0 °F 96% 30.05 in 3.0 mi South 15.0 mph - N/A   Overcast
11:53 AM 35.1 °F 25.2 °F 34.0 °F 96% 30.11 in 4.0 mi South 16.1 mph - N/A   Overcast
12:01 PM 36.0 °F 26.0 °F 34.0 °F 93% 30.04 in 5.0 mi South 17.3 mph - N/A   Overcast
12:19 PM 37.0 °F 28.1 °F 36.0 °F 96% 30.03 in 8.0 mi South 15.0 mph - N/A   Overcast
12:53 PM 41.0 °F 31.4 °F 36.0 °F 82% 30.05 in 10.0 mi South 21.9 mph - N/A   Mostly Cloudy
1:05 PM 43.0 °F 34.8 °F 37.0 °F 80% 29.99 in 10.0 mi South 18.4 mph - N/A   Scattered Clouds
1:53 PM 46.9 °F - 37.0 °F 68% 30.01 in 10.0 mi SSE 20.7 mph - N/A   Clear
2:53 PM 50.0 °F - 37.0 °F 61% 29.97 in 10.0 mi South 20.7 mph - N/A   Clear
3:53 PM 52.0 °F - 37.9 °F 59% 29.94 in 10.0 mi South 21.9 mph - N/A   Clear
4:53 PM 48.0 °F - 37.0 °F 66% 29.93 in 10.0 mi South 25.3 mph - N/A   Clear
5:53 PM 44.1 °F 35.4 °F 36.0 °F 73% 29.90 in 9.0 mi South 21.9 mph - N/A   Clear
6:53 PM 41.0 °F 31.6 °F 34.0 °F 76% 29.89 in 10.0 mi South 20.7 mph - N/A   Clear
7:53 PM 41.0 °F 31.4 °F 34.0 °F 76% 29.89 in 10.0 mi South 21.9 mph 32.2 mph N/A   Clear
8:53 PM 39.9 °F 29.5 °F 34.0 °F 79% 29.88 in 9.0 mi South 24.2 mph - N/A   Clear
9:53 PM 39.0 °F 29.0 °F 34.0 °F 82% 29.86 in 9.0 mi South 20.7 mph - N/A   Clear
10:53 PM 39.0 °F 29.0 °F 35.1 °F 86% 29.85 in 9.0 mi South 20.7 mph - N/A   Clear
11:53 PM 39.9 °F 29.7 °F 35.1 °F 83% 29.81 in 9.0 mi South 23.0 mph - N/A   Clear